Laconia, NH

11:35 PM EST on November 11, 2019 (GMT -0500)
Laconia Municipal

Weather History for KLCI - October, 2019

Change the Weather History Date:

Sunday, October 20, 2019

  Actual Average Record
Temperature  
Mean Temperature 41 °F -  
Max Temperature 52 °F 58 °F 70 °F (1984)
Min Temperature 30 °F 37 °F 26 °F (2003)
Degree Days  
Heating Degree Days 24    
Moisture  
Dew Point 38 °F    
Average Humidity 91    
Maximum Humidity 100    
Minimum Humidity 66    
Precipitation  
Precipitation 0.11 in - - ()
Sea Level Pressure  
Sea Level Pressure 30.10 in    
Wind  
Wind Speed 1 mph ()    
Max Wind Speed 6 mph    
Max Gust Speed -    
Visibility 8.8 miles    
Events Rain    
Averages and records for this station are not official NWS values.
T = Trace of Precipitation, MM = Missing Value Source: Averaged Metar Reports

Daily Weather History Graph

Daily Weather History Graph

Search for Another Location

Airport or City:

Astronomy

Oct. 20, 2019 Rise Set
Actual Time 7:05 AM EDT 5:54 PM EDT
Civil Twilight 6:36 AM EDT 6:23 PM EDT
Nautical Twilight 6:03 AM EDT 6:56 PM EDT
Astronomical Twilight 5:30 AM EDT 7:30 PM EDT
Moon 10:53 PM EDT (10/20) 1:38 PM EDT (10/20)
Length of Visible Light 11h 47m
Length of Day
10h 48m
Waning Gibbous, 59% of the Moon is Illuminated
Oct 20
Waning Gibbous
Oct 21
Last Quarter
Oct 27
New
Nov 4
First Quarter
Nov 12
Full

Hourly Weather History & Observations

Time (EDT) Temp. Windchill Dew Point Humidity Pressure Visibility Wind Dir Wind Speed Gust Speed Precip Events Conditions
12:56 AM 35.1 °F - 34.0 °F 96% 30.08 in 10.0 mi Calm Calm - N/A   Clear
1:56 AM 32.0 °F - 30.9 °F 96% 30.08 in 10.0 mi Calm Calm - N/A   Clear
2:56 AM 30.9 °F - 30.0 °F 96% 30.08 in 10.0 mi Calm Calm - N/A   Clear
3:56 AM 30.0 °F - 30.0 °F 100% 30.10 in 10.0 mi Calm Calm - N/A   Partly Cloudy
4:40 AM 32.0 °F - 32.0 °F 100% 30.09 in 10.0 mi Calm Calm - N/A   Mostly Cloudy
4:56 AM 32.0 °F - 32.0 °F 100% 30.10 in 1.8 mi Calm Calm - N/A   Overcast
5:08 AM 32.0 °F - 32.0 °F 100% 30.09 in 6.0 mi Calm Calm - N/A   Overcast
5:32 AM 30.2 °F - 30.2 °F 100% 30.09 in 1.8 mi Calm Calm - N/A   Mostly Cloudy
5:56 AM 32.0 °F - 30.9 °F 96% 30.10 in 2.0 mi Calm Calm - N/A   Overcast
6:11 AM 33.8 °F - 32.0 °F 93% 30.09 in 10.0 mi Calm Calm - N/A   Scattered Clouds
6:56 AM 32.0 °F - 32.0 °F 100% 30.10 in 10.0 mi Calm Calm - N/A   Partly Cloudy
7:25 AM 33.8 °F - 33.8 °F 100% 30.10 in 10.0 mi Calm Calm - N/A   Mostly Cloudy
7:56 AM 34.0 °F - 34.0 °F 100% 30.12 in 10.0 mi Calm Calm - N/A   Overcast
8:56 AM 39.9 °F 37.8 °F 39.0 °F 97% 30.14 in 10.0 mi WSW 3.5 mph - N/A   Overcast
9:56 AM 43.0 °F - 39.9 °F 89% 30.14 in 10.0 mi Calm Calm - N/A   Mostly Cloudy
10:16 AM 44.6 °F - 41.0 °F 87% 30.13 in 10.0 mi Calm Calm - N/A   Partly Cloudy
10:56 AM 45.0 °F 43.5 °F 41.0 °F 86% 30.14 in 10.0 mi NNE 3.5 mph - N/A   Partly Cloudy
11:56 AM 48.9 °F - 41.0 °F 74% 30.13 in 10.0 mi NE 5.8 mph - N/A   Clear
12:56 PM 48.9 °F - 39.9 °F 71% 30.12 in 10.0 mi NE 4.6 mph - N/A   Clear
1:56 PM 51.1 °F - 41.0 °F 68% 30.10 in 10.0 mi NNE 3.5 mph - N/A   Clear
2:56 PM 52.0 °F - 41.0 °F 66% 30.09 in 10.0 mi NE 4.6 mph - N/A   Partly Cloudy
3:56 PM 52.0 °F - 42.1 °F 69% 30.09 in 10.0 mi Calm Calm - N/A   Partly Cloudy
4:56 PM 51.1 °F - 42.1 °F 71% 30.08 in 10.0 mi Calm Calm - N/A   Scattered Clouds
5:56 PM 48.9 °F - 45.0 °F 86% 30.08 in 10.0 mi Calm Calm - 0.00 in   Mostly Cloudy
6:56 PM 48.9 °F - 45.0 °F 86% 30.08 in 10.0 mi Calm Calm - N/A   Clear
7:56 PM 48.0 °F - 45.0 °F 89% 30.09 in 10.0 mi Calm Calm - 0.00 in Rain Light Rain
8:56 PM 46.9 °F - 46.0 °F 97% 30.09 in 5.0 mi Calm Calm - 0.07 in Rain Rain
9:56 PM 46.9 °F - 46.9 °F 100% 30.10 in 9.0 mi Calm Calm - 0.03 in   Overcast
10:09 PM 46.4 °F - 46.4 °F 100% 30.09 in 9.0 mi Calm Calm - N/A   Overcast
10:56 PM 46.9 °F - 46.9 °F 100% 30.07 in 8.0 mi Calm Calm - 0.01 in   Overcast
11:56 PM 46.9 °F - 46.9 °F 100% 30.07 in 10.0 mi Calm Calm - N/A   Overcast